Home > Weather > Ilio > Past weeks

Flag for Greece Weather for the Past 2 Weeks in Ilio, Greece

Now
73 °F

Passing clouds.


Feels Like: 77 °F
Forecast: 51 / 75 °F
Wind: 15 mph from Northwest

Location: Elefsis Airport

Current Time: Apr 30, 2016 at 1:09:44 PM

Latest Report: Apr 30, 2016 at 12:20 PM


Visibility: N/A

Pressure: 29.98 "Hg

Humidity: 44%

Dew Point: 50 °F

Location of IlioLocation

Historic Weather in Ilio — Graph

°F

Ilio Temperature Yesterday

Maximum temperature yesterday: 77 °F (at 2:20 PM)
Minimum temperature yesterday: 57 °F (at 1:20 AM)
Average temperature yesterday: 68 °F

High & Low Weather Summary for the Past Weeks

 TemperatureHumidityPressure
High84 °F (Apr 15, 3:20 PM)83% (Apr 23, 8:50 PM)30.27 "Hg (Apr 23, 8:50 PM)
Low50 °F (Apr 18, 6:50 AM)13% (Apr 15, 1:50 PM)29.50 "Hg (Apr 24, 6:20 PM)
Average67 °F44%29.93 "Hg
* Reported Apr 15 11:20 AM — Apr 30 11:20 AM, Ilio, Weather by CustomWeather, © 2016

Note: Actual official high and low records may vary slightly from our data, if they occured in-between our weather recording intervals... More about our weather records

Advertising

Ilio Weather History for the Previous 24 Hours

Scroll right to see more
 ConditionsComfort  
Time TempWeatherWind HumidityBarometerVisibility
11:20 AM
Sat, Apr 30
72 °FPassing clouds.12 mph44%29.98 "HgN/A
10:50 AM70 °FPassing clouds.12 mph46%29.98 "HgN/A
10:20 AM68 °FPassing clouds.12 mph49%29.98 "HgN/A
9:50 AM68 °FPassing clouds.12 mph49%29.98 "HgN/A
9:20 AM66 °FPassing clouds.9 mph52%29.98 "HgN/A
8:50 AM64 °FPassing clouds.12 mph60%29.98 "HgN/A
8:20 AM64 °FPassing clouds.12 mph60%29.95 "HgN/A
7:50 AM63 °FPassing clouds.14 mph64%29.95 "HgN/A
7:20 AM61 °FPassing clouds.14 mph68%29.95 "HgN/A
6:50 AM61 °FPassing clouds.14 mph68%29.95 "HgN/A
6:20 AM61 °FPassing clouds.9 mph68%29.92 "HgN/A
5:50 AM63 °FPassing clouds.12 mph64%29.92 "HgN/A
5:20 AM63 °FPassing clouds.12 mph64%29.92 "HgN/A
4:50 AM63 °FPassing clouds.14 mph64%29.92 "HgN/A
4:20 AM63 °FPassing clouds.12 mph64%29.92 "HgN/A
3:50 AM63 °FPassing clouds.12 mph64%29.92 "HgN/A
2:50 AM63 °FPassing clouds.6 mph52%29.92 "HgN/A
1:50 AM64 °FPassing clouds.No wind46%29.92 "HgN/A
12:50 AM64 °FPassing clouds.5 mph46%29.92 "HgN/A
11:50 PM
Fri, Apr 29
63 °FPassing clouds.6 mph49%29.92 "HgN/A
10:50 PM64 °FPassing clouds.6 mph46%29.95 "HgN/A
10:20 PM66 °FPassing clouds.No wind46%29.92 "HgN/A
9:50 PM66 °FPassing clouds.No wind46%29.92 "HgN/A
9:20 PM66 °FPassing clouds.No wind46%29.92 "HgN/A
8:50 PM68 °FScattered clouds.No wind43%29.92 "HgN/A
8:20 PM68 °FScattered clouds.No wind43%29.92 "HgN/A
7:50 PM70 °FScattered clouds.7 mph38%29.92 "HgN/A
7:20 PM72 °FScattered clouds.6 mph36%29.92 "HgN/A
6:50 PM73 °FScattered clouds.3 mph33%29.92 "HgN/A
6:20 PM73 °FPartly sunny.3 mph33%29.92 "HgN/A
5:50 PM73 °FPartly sunny.7 mph36%29.95 "HgN/A
5:20 PM70 °FPartly sunny.12 mph43%29.95 "HgN/A
4:50 PM70 °FPartly sunny.9 mph40%29.92 "HgN/A
4:20 PM72 °FBroken clouds.7 mph38%29.95 "HgN/A
3:50 PM72 °FBroken clouds.10 mph38%29.95 "HgN/A
3:20 PM75 °FBroken clouds.12 mph29%29.98 "HgN/A
2:50 PM77 °FBroken clouds.8 mph32%29.95 "HgN/A
2:20 PM77 °FBroken clouds.8 mph32%29.98 "HgN/A
1:50 PM75 °FBroken clouds.6 mph31%29.98 "HgN/A
Weather by CustomWeather, © 2016

See weather overviewHow to use our weather pages